Year,Month,Day,Hour,Minute,Value (Times are PST for temperature in C)
2015,04,08,00,00,8.10
2015,04,08,00,01,8.00
2015,04,08,00,02,8.00
2015,04,08,00,03,8.00
2015,04,08,00,04,8.00
2015,04,08,00,05,7.90
2015,04,08,00,06,7.90
2015,04,08,00,07,7.90
2015,04,08,00,08,7.90
2015,04,08,00,09,7.90
2015,04,08,00,10,7.90
2015,04,08,00,11,7.90
2015,04,08,00,12,7.90
2015,04,08,00,13,7.90
2015,04,08,00,14,7.90
2015,04,08,00,15,7.90
2015,04,08,00,16,7.80
2015,04,08,00,17,7.80
2015,04,08,00,18,7.80
2015,04,08,00,19,7.80
2015,04,08,00,20,7.80
2015,04,08,00,21,7.80
2015,04,08,00,22,7.80
2015,04,08,00,23,7.80
2015,04,08,00,24,7.70
2015,04,08,00,25,7.70
2015,04,08,00,26,7.70
2015,04,08,00,27,7.70
2015,04,08,00,28,7.70
2015,04,08,00,29,7.70
2015,04,08,00,30,7.70
2015,04,08,00,31,7.70
2015,04,08,00,32,7.70
2015,04,08,00,33,7.70
2015,04,08,00,34,7.70
2015,04,08,00,35,7.70
2015,04,08,00,36,7.70
2015,04,08,00,37,7.70
2015,04,08,00,38,7.70
2015,04,08,00,39,7.70
2015,04,08,00,40,7.70
2015,04,08,00,41,7.70
2015,04,08,00,42,7.70
2015,04,08,00,43,7.60
2015,04,08,00,44,7.60
2015,04,08,00,45,7.60
2015,04,08,00,46,7.60
2015,04,08,00,47,7.60
2015,04,08,00,48,7.60
2015,04,08,00,49,7.50
2015,04,08,00,50,7.50
2015,04,08,00,51,7.50
2015,04,08,00,52,7.40
2015,04,08,00,53,7.40
2015,04,08,00,54,7.40
2015,04,08,00,55,7.40
2015,04,08,00,56,7.40
2015,04,08,00,57,7.40
2015,04,08,00,58,7.40
2015,04,08,00,59,7.40
2015,04,08,01,00,7.40
2015,04,08,01,01,7.40
2015,04,08,01,02,7.40
2015,04,08,01,03,7.40
2015,04,08,01,04,7.40
2015,04,08,01,05,7.40
2015,04,08,01,06,7.40
2015,04,08,01,07,7.40
2015,04,08,01,08,7.40
2015,04,08,01,09,7.40
2015,04,08,01,10,7.30
2015,04,08,01,11,7.30
2015,04,08,01,12,7.30
2015,04,08,01,13,7.30
2015,04,08,01,14,7.30
2015,04,08,01,15,7.30
2015,04,08,01,16,7.30
2015,04,08,01,17,7.30
2015,04,08,01,18,7.30
2015,04,08,01,19,7.30
2015,04,08,01,20,7.30
2015,04,08,01,21,7.30
2015,04,08,01,22,7.30
2015,04,08,01,23,7.30
2015,04,08,01,24,7.20
2015,04,08,01,25,7.20
2015,04,08,01,26,7.20
2015,04,08,01,27,7.20
2015,04,08,01,28,7.20
2015,04,08,01,29,7.20
2015,04,08,01,30,7.10
2015,04,08,01,31,7.10
2015,04,08,01,32,7.10
2015,04,08,01,33,7.00
2015,04,08,01,34,7.00
2015,04,08,01,35,6.90
2015,04,08,01,36,6.90
2015,04,08,01,37,6.90
2015,04,08,01,38,6.90
2015,04,08,01,39,6.90
2015,04,08,01,40,6.90
2015,04,08,01,41,6.80
2015,04,08,01,42,6.80
2015,04,08,01,43,6.80
2015,04,08,01,44,6.80
2015,04,08,01,45,6.80
2015,04,08,01,46,6.80
2015,04,08,01,47,6.70
2015,04,08,01,48,6.70
2015,04,08,01,49,6.60
2015,04,08,01,50,6.60
2015,04,08,01,51,6.60
2015,04,08,01,52,6.50
2015,04,08,01,53,6.50
2015,04,08,01,54,6.40
2015,04,08,01,55,6.40
2015,04,08,01,56,6.40
2015,04,08,01,57,6.40
2015,04,08,01,58,6.30
2015,04,08,01,59,6.30
2015,04,08,02,00,6.30
2015,04,08,02,01,6.30
2015,04,08,02,02,6.30
2015,04,08,02,03,6.30
2015,04,08,02,04,6.30
2015,04,08,02,05,6.30
2015,04,08,02,06,6.30
2015,04,08,02,07,6.30
2015,04,08,02,08,6.30
2015,04,08,02,09,6.30
2015,04,08,02,10,6.20
2015,04,08,02,11,6.20
2015,04,08,02,12,6.10
2015,04,08,02,13,6.00
2015,04,08,02,14,6.00
2015,04,08,02,15,5.90
2015,04,08,02,16,5.80
2015,04,08,02,17,5.80
2015,04,08,02,18,5.70
2015,04,08,02,19,5.70
2015,04,08,02,20,5.60
2015,04,08,02,21,5.60
2015,04,08,02,22,5.50
2015,04,08,02,23,5.50
2015,04,08,02,24,5.40
2015,04,08,02,25,5.40
2015,04,08,02,26,5.40
2015,04,08,02,27,5.50
2015,04,08,02,28,5.50
2015,04,08,02,29,5.60
2015,04,08,02,30,5.70
2015,04,08,02,31,5.80
2015,04,08,02,32,5.80
2015,04,08,02,33,5.90
2015,04,08,02,34,6.00
2015,04,08,02,35,6.00
2015,04,08,02,36,6.10
2015,04,08,02,37,6.10
2015,04,08,02,38,6.20
2015,04,08,02,39,6.20
2015,04,08,02,40,6.30
2015,04,08,02,41,6.30
2015,04,08,02,42,6.30
2015,04,08,02,43,6.40
2015,04,08,02,44,6.50
2015,04,08,02,45,6.60
2015,04,08,02,46,6.60
2015,04,08,02,47,6.60
2015,04,08,02,48,6.60
2015,04,08,02,49,6.60
2015,04,08,02,50,6.70
2015,04,08,02,51,6.70
2015,04,08,02,52,6.70
2015,04,08,02,53,6.70
2015,04,08,02,54,6.70
2015,04,08,02,55,6.70
2015,04,08,02,56,6.70
2015,04,08,02,57,6.80
2015,04,08,02,58,6.80
2015,04,08,02,59,6.80
2015,04,08,03,00,6.80
2015,04,08,03,01,6.80
2015,04,08,03,02,6.80
2015,04,08,03,03,6.70
2015,04,08,03,04,6.70
2015,04,08,03,05,6.70
2015,04,08,03,06,6.70
2015,04,08,03,07,6.70
2015,04,08,03,08,6.70
2015,04,08,03,09,6.70
2015,04,08,03,10,6.70
2015,04,08,03,11,6.70
2015,04,08,03,12,6.70
2015,04,08,03,13,6.70
2015,04,08,03,14,6.60
2015,04,08,03,15,6.60
2015,04,08,03,16,6.60
2015,04,08,03,17,6.60
2015,04,08,03,18,6.60
2015,04,08,03,19,6.60
2015,04,08,03,20,6.50
2015,04,08,03,21,6.50
2015,04,08,03,22,6.50
2015,04,08,03,23,6.50
2015,04,08,03,24,6.40
2015,04,08,03,25,6.40
2015,04,08,03,26,6.40
2015,04,08,03,27,6.30
2015,04,08,03,28,6.30
2015,04,08,03,29,6.30
2015,04,08,03,30,6.30
2015,04,08,03,31,6.30
2015,04,08,03,32,6.20
2015,04,08,03,33,6.20
2015,04,08,03,34,6.20
2015,04,08,03,35,6.20
2015,04,08,03,36,6.20
2015,04,08,03,37,6.20
2015,04,08,03,38,6.20
2015,04,08,03,39,6.20
2015,04,08,03,40,6.10
2015,04,08,03,41,6.10
2015,04,08,03,42,6.10
2015,04,08,03,43,6.10
2015,04,08,03,44,6.00
2015,04,08,03,45,6.00
2015,04,08,03,46,5.90
2015,04,08,03,47,5.90
2015,04,08,03,48,5.90
2015,04,08,03,49,5.90
2015,04,08,03,50,5.90
2015,04,08,03,51,5.90
2015,04,08,03,52,5.90
2015,04,08,03,53,5.90
2015,04,08,03,54,5.90
2015,04,08,03,55,5.90
2015,04,08,03,56,5.90
2015,04,08,03,57,5.90
2015,04,08,03,58,5.90
2015,04,08,03,59,5.80
2015,04,08,04,00,5.80
2015,04,08,04,01,5.80
2015,04,08,04,02,5.90
2015,04,08,04,03,5.90
2015,04,08,04,04,5.90
2015,04,08,04,05,5.90
2015,04,08,04,06,5.90
2015,04,08,04,07,5.90
2015,04,08,04,08,5.90
2015,04,08,04,09,5.90
2015,04,08,04,10,6.00
2015,04,08,04,11,5.90
2015,04,08,04,12,5.90
2015,04,08,04,13,5.90
2015,04,08,04,14,5.90
2015,04,08,04,15,5.90
2015,04,08,04,16,5.90
2015,04,08,04,17,5.90
2015,04,08,04,18,5.90
2015,04,08,04,19,5.90
2015,04,08,04,20,5.90
2015,04,08,04,21,5.90
2015,04,08,04,22,5.80
2015,04,08,04,23,5.80
2015,04,08,04,24,5.80
2015,04,08,04,25,5.80
2015,04,08,04,26,5.80
2015,04,08,04,27,5.80
2015,04,08,04,28,5.80
2015,04,08,04,29,5.80
2015,04,08,04,30,5.80
2015,04,08,04,31,5.80
2015,04,08,04,32,5.80
2015,04,08,04,33,5.80
2015,04,08,04,34,5.80
2015,04,08,04,35,5.80
2015,04,08,04,36,5.80
2015,04,08,04,37,5.80
2015,04,08,04,38,5.80
2015,04,08,04,39,5.80
2015,04,08,04,40,5.80
2015,04,08,04,41,5.70
2015,04,08,04,42,5.70
2015,04,08,04,43,5.70
2015,04,08,04,44,5.70
2015,04,08,04,45,5.70
2015,04,08,04,46,5.70
2015,04,08,04,47,5.60
2015,04,08,04,48,5.60
2015,04,08,04,49,5.60
2015,04,08,04,50,5.50
2015,04,08,04,51,5.50
2015,04,08,04,52,5.50
2015,04,08,04,53,5.40
2015,04,08,04,54,5.40
2015,04,08,04,55,5.40
2015,04,08,04,56,5.30
2015,04,08,04,57,5.30
2015,04,08,04,58,5.30
2015,04,08,04,59,5.30
2015,04,08,05,00,5.30
2015,04,08,05,01,5.30
2015,04,08,05,02,5.30
2015,04,08,05,03,5.30
2015,04,08,05,04,5.40
2015,04,08,05,05,5.40
2015,04,08,05,06,5.40
2015,04,08,05,07,5.40
2015,04,08,05,08,5.40
2015,04,08,05,09,5.40
2015,04,08,05,10,5.40
2015,04,08,05,11,5.50
2015,04,08,05,12,5.50
2015,04,08,05,13,5.50
2015,04,08,05,14,5.50
2015,04,08,05,15,5.50
2015,04,08,05,16,5.50
2015,04,08,05,17,5.60
2015,04,08,05,18,5.60
2015,04,08,05,19,5.60
2015,04,08,05,20,5.60
2015,04,08,05,21,5.70
2015,04,08,05,22,5.70
2015,04,08,05,23,5.70
2015,04,08,05,24,5.70
2015,04,08,05,25,5.70
2015,04,08,05,26,5.70
2015,04,08,05,27,5.70
2015,04,08,05,28,5.80
2015,04,08,05,29,5.70
2015,04,08,05,30,5.70
2015,04,08,05,31,5.70
2015,04,08,05,32,5.70
2015,04,08,05,33,5.70
2015,04,08,05,34,5.70
2015,04,08,05,35,5.70
2015,04,08,05,36,5.60
2015,04,08,05,37,5.60
2015,04,08,05,38,5.50
2015,04,08,05,39,5.50
2015,04,08,05,40,5.50
2015,04,08,05,41,5.50
2015,04,08,05,42,5.60
2015,04,08,05,43,5.50
2015,04,08,05,44,5.50
2015,04,08,05,45,5.50
2015,04,08,05,46,5.50
2015,04,08,05,47,5.50
2015,04,08,05,48,5.40
2015,04,08,05,49,5.40
2015,04,08,05,50,5.40
2015,04,08,05,51,5.40
2015,04,08,05,52,5.40
2015,04,08,05,53,5.40
2015,04,08,05,54,5.40
2015,04,08,05,55,5.40
2015,04,08,05,56,5.30
2015,04,08,05,57,5.40
2015,04,08,05,58,5.30
2015,04,08,05,59,5.30
2015,04,08,06,00,5.30
2015,04,08,06,01,5.30
2015,04,08,06,02,5.30
2015,04,08,06,03,5.30
2015,04,08,06,04,5.30
2015,04,08,06,05,5.30
2015,04,08,06,06,5.30
2015,04,08,06,07,5.30
2015,04,08,06,08,5.30
2015,04,08,06,09,5.30
2015,04,08,06,10,5.30
2015,04,08,06,11,5.30
2015,04,08,06,12,5.30
2015,04,08,06,13,5.20
2015,04,08,06,14,5.20
2015,04,08,06,15,5.20
2015,04,08,06,16,5.20
2015,04,08,06,17,5.20
2015,04,08,06,18,5.20
2015,04,08,06,19,5.10
2015,04,08,06,20,5.10
2015,04,08,06,21,5.10
2015,04,08,06,22,5.00
2015,04,08,06,23,5.00
2015,04,08,06,24,5.00
2015,04,08,06,25,5.00
2015,04,08,06,26,5.00
2015,04,08,06,27,4.90
2015,04,08,06,28,4.90
2015,04,08,06,29,4.90
2015,04,08,06,30,4.90
2015,04,08,06,31,4.90
2015,04,08,06,32,4.80
2015,04,08,06,33,4.80
2015,04,08,06,34,4.80
2015,04,08,06,35,4.80
2015,04,08,06,36,4.80
2015,04,08,06,37,4.80
2015,04,08,06,38,4.80
2015,04,08,06,39,4.80
2015,04,08,06,40,4.70
2015,04,08,06,41,4.70
2015,04,08,06,42,4.70
2015,04,08,06,43,4.70
2015,04,08,06,44,4.70
2015,04,08,06,45,4.70
2015,04,08,06,46,4.70
2015,04,08,06,47,4.70
2015,04,08,06,48,4.70
2015,04,08,06,49,4.70
2015,04,08,06,50,4.70
2015,04,08,06,51,4.70
2015,04,08,06,52,4.70
2015,04,08,06,53,4.70
2015,04,08,06,54,4.60
2015,04,08,06,55,4.60
2015,04,08,06,56,4.60
2015,04,08,06,57,4.60
2015,04,08,06,58,4.60
2015,04,08,06,59,4.60
2015,04,08,07,00,4.60
2015,04,08,07,01,4.60
2015,04,08,07,02,4.60
2015,04,08,07,03,4.60
2015,04,08,07,04,4.60
2015,04,08,07,05,4.60
2015,04,08,07,06,4.60
2015,04,08,07,07,4.60
2015,04,08,07,08,4.60
2015,04,08,07,09,4.60
2015,04,08,07,10,4.60
2015,04,08,07,11,4.70
2015,04,08,07,12,4.70
2015,04,08,07,13,4.70
2015,04,08,07,14,4.70
2015,04,08,07,15,4.70
2015,04,08,07,16,4.80
2015,04,08,07,17,4.80
2015,04,08,07,18,4.90
2015,04,08,07,19,4.90
2015,04,08,07,20,4.90
2015,04,08,07,21,5.00
2015,04,08,07,22,5.00
2015,04,08,07,23,5.10
2015,04,08,07,24,5.20
2015,04,08,07,25,5.30
2015,04,08,07,26,5.40
2015,04,08,07,27,5.50
2015,04,08,07,28,5.60
2015,04,08,07,29,5.60
2015,04,08,07,30,5.60
2015,04,08,07,31,5.60
2015,04,08,07,32,5.50
2015,04,08,07,33,5.50
2015,04,08,07,34,5.50
2015,04,08,07,35,5.40
2015,04,08,07,36,5.50
2015,04,08,07,37,5.50
2015,04,08,07,38,5.50
2015,04,08,07,39,5.60
2015,04,08,07,40,5.60
2015,04,08,07,41,5.60
2015,04,08,07,42,5.60
2015,04,08,07,43,5.60
2015,04,08,07,44,5.60
2015,04,08,07,45,5.50
2015,04,08,07,46,5.50
2015,04,08,07,47,5.50
2015,04,08,07,48,5.40
2015,04,08,07,49,5.40
2015,04,08,07,50,5.40
2015,04,08,07,51,5.40
2015,04,08,07,52,5.30
2015,04,08,07,53,5.30
2015,04,08,07,54,5.30
2015,04,08,07,55,5.40
2015,04,08,07,56,5.50
2015,04,08,07,57,5.60
2015,04,08,07,58,5.70
2015,04,08,07,59,5.70
2015,04,08,08,00,5.80
2015,04,08,08,01,5.90
2015,04,08,08,02,6.00
2015,04,08,08,03,6.00
2015,04,08,08,04,6.00
2015,04,08,08,05,6.20
2015,04,08,08,06,6.30
2015,04,08,08,07,6.40
2015,04,08,08,08,6.50
2015,04,08,08,09,6.50
2015,04,08,08,10,6.50
2015,04,08,08,11,6.60
2015,04,08,08,12,6.60
2015,04,08,08,13,6.60
2015,04,08,08,14,6.60
2015,04,08,08,15,6.70
2015,04,08,08,16,6.70
2015,04,08,08,17,6.80
2015,04,08,08,18,6.80
2015,04,08,08,19,6.80
2015,04,08,08,20,6.90
2015,04,08,08,21,7.00
2015,04,08,08,22,7.10
2015,04,08,08,23,7.30
2015,04,08,08,24,7.50
2015,04,08,08,25,7.60
2015,04,08,08,26,7.80
2015,04,08,08,27,8.00
2015,04,08,08,28,8.10
2015,04,08,08,29,8.10
2015,04,08,08,30,8.20
2015,04,08,08,31,8.20
2015,04,08,08,32,8.20
2015,04,08,08,33,8.20
2015,04,08,08,34,8.20
2015,04,08,08,35,8.20
2015,04,08,08,36,8.30
2015,04,08,08,37,8.30
2015,04,08,08,38,8.30
2015,04,08,08,39,8.30
2015,04,08,08,40,8.40
2015,04,08,08,41,8.40
2015,04,08,08,42,8.40
2015,04,08,08,43,8.50
2015,04,08,08,44,8.50
2015,04,08,08,45,8.60
2015,04,08,08,46,8.60
2015,04,08,08,47,8.60
2015,04,08,08,48,8.60
2015,04,08,08,49,8.60
2015,04,08,08,50,8.70
2015,04,08,08,51,8.70
2015,04,08,08,52,8.70
2015,04,08,08,53,8.70
2015,04,08,08,54,8.70
2015,04,08,08,55,8.80
2015,04,08,08,56,8.80
2015,04,08,08,57,8.80
2015,04,08,08,58,8.90
2015,04,08,08,59,8.90
2015,04,08,09,00,8.90
2015,04,08,09,01,8.90
2015,04,08,09,02,8.90
2015,04,08,09,03,8.90
2015,04,08,09,04,8.90
2015,04,08,09,05,9.00
2015,04,08,09,06,9.00
2015,04,08,09,07,9.10
2015,04,08,09,08,9.10
2015,04,08,09,09,9.10
2015,04,08,09,10,9.10
2015,04,08,09,11,9.10
2015,04,08,09,12,9.10
2015,04,08,09,13,9.10
2015,04,08,09,14,9.10
2015,04,08,09,15,9.10
2015,04,08,09,16,9.10
2015,04,08,09,17,9.00
2015,04,08,09,18,9.00
2015,04,08,09,19,9.00
2015,04,08,09,20,9.00
2015,04,08,09,21,9.00
2015,04,08,09,22,9.10
2015,04,08,09,23,9.20
2015,04,08,09,24,9.20
2015,04,08,09,25,9.30
2015,04,08,09,26,9.30
2015,04,08,09,27,9.30
2015,04,08,09,28,9.20
2015,04,08,09,29,9.20
2015,04,08,09,30,9.10
2015,04,08,09,31,9.10
2015,04,08,09,32,9.10
2015,04,08,09,33,9.10
2015,04,08,09,34,9.00
2015,04,08,09,35,9.00
2015,04,08,09,36,8.90
2015,04,08,09,37,8.90
2015,04,08,09,38,8.80
2015,04,08,09,39,8.90
2015,04,08,09,40,9.00
2015,04,08,09,41,9.00
2015,04,08,09,42,8.90
2015,04,08,09,43,8.90
2015,04,08,09,44,8.90
2015,04,08,09,45,8.90
2015,04,08,09,46,8.90
2015,04,08,09,47,8.90
2015,04,08,09,48,9.00
2015,04,08,09,49,9.00
2015,04,08,09,50,9.00
2015,04,08,09,51,9.00
2015,04,08,09,52,9.10
2015,04,08,09,53,9.10
2015,04,08,09,54,9.10
2015,04,08,09,55,9.10
2015,04,08,09,56,9.10
2015,04,08,09,57,9.20
2015,04,08,09,58,9.20
2015,04,08,09,59,9.30
2015,04,08,10,00,9.40
2015,04,08,10,01,9.40
2015,04,08,10,02,9.50
2015,04,08,10,03,9.50
2015,04,08,10,04,9.60
2015,04,08,10,05,9.60
2015,04,08,10,06,9.70
2015,04,08,10,07,9.70
2015,04,08,10,08,9.80
2015,04,08,10,09,9.80
2015,04,08,10,10,9.90
2015,04,08,10,11,9.90
2015,04,08,10,12,9.90
2015,04,08,10,13,9.90
2015,04,08,10,14,9.90
2015,04,08,10,15,9.90
2015,04,08,10,16,9.90
2015,04,08,10,17,9.90
2015,04,08,10,18,9.90
2015,04,08,10,19,9.90
2015,04,08,10,20,9.90
2015,04,08,10,21,10.00
2015,04,08,10,22,10.00
2015,04,08,10,23,10.10
2015,04,08,10,24,10.10
2015,04,08,10,25,10.10
2015,04,08,10,26,10.00
2015,04,08,10,27,10.00
2015,04,08,10,28,10.00
2015,04,08,10,29,10.00
2015,04,08,10,30,10.10
2015,04,08,10,31,10.10
2015,04,08,10,32,10.10
2015,04,08,10,33,10.20
2015,04,08,10,34,10.20
2015,04,08,10,35,10.30
2015,04,08,10,36,10.40
2015,04,08,10,37,10.40
2015,04,08,10,38,10.40
2015,04,08,10,39,10.40
2015,04,08,10,40,10.50
2015,04,08,10,41,10.50
2015,04,08,10,42,10.60
2015,04,08,10,43,10.60
2015,04,08,10,44,10.60
2015,04,08,10,45,10.60
2015,04,08,10,46,10.60
2015,04,08,10,47,10.70
2015,04,08,10,48,10.80
2015,04,08,10,49,10.90
2015,04,08,10,50,10.90
2015,04,08,10,51,11.00
2015,04,08,10,52,11.10
2015,04,08,10,53,11.10
2015,04,08,10,54,11.10
2015,04,08,10,55,11.00
2015,04,08,10,56,10.90
2015,04,08,10,57,10.90
2015,04,08,10,58,10.90
2015,04,08,10,59,11.00
2015,04,08,11,00,11.10
2015,04,08,11,01,11.20
2015,04,08,11,02,11.30
2015,04,08,11,03,11.30
2015,04,08,11,04,11.30
2015,04,08,11,05,11.30
2015,04,08,11,06,11.30
2015,04,08,11,07,11.30
2015,04,08,11,08,11.20
2015,04,08,11,09,11.20
2015,04,08,11,10,11.20
2015,04,08,11,11,11.20
2015,04,08,11,12,11.30
2015,04,08,11,13,11.30
2015,04,08,11,14,11.30
2015,04,08,11,15,11.30
2015,04,08,11,16,11.30
2015,04,08,11,17,11.30
2015,04,08,11,18,11.40
2015,04,08,11,19,11.40
2015,04,08,11,20,11.40
2015,04,08,11,21,11.40
2015,04,08,11,22,11.50
2015,04,08,11,23,11.50
2015,04,08,11,24,11.60
2015,04,08,11,25,11.70
2015,04,08,11,26,11.80
2015,04,08,11,27,11.80
2015,04,08,11,28,11.90
2015,04,08,11,29,11.90
2015,04,08,11,30,12.00
2015,04,08,11,31,12.00
2015,04,08,11,32,12.10
2015,04,08,11,33,12.20
2015,04,08,11,34,12.20
2015,04,08,11,35,12.20
2015,04,08,11,36,12.20
2015,04,08,11,37,12.20
2015,04,08,11,38,12.20
2015,04,08,11,39,12.20
2015,04,08,11,40,12.20
2015,04,08,11,41,12.20
2015,04,08,11,42,12.10
2015,04,08,11,43,12.00
2015,04,08,11,44,11.90
2015,04,08,11,45,11.90
2015,04,08,11,46,11.90
2015,04,08,11,47,11.90
2015,04,08,11,48,11.90
2015,04,08,11,49,12.00
2015,04,08,11,50,12.00
2015,04,08,11,51,12.00
2015,04,08,11,52,11.90
2015,04,08,11,53,11.90
2015,04,08,11,54,11.90
2015,04,08,11,55,11.90
2015,04,08,11,56,11.90
2015,04,08,11,57,12.00
2015,04,08,11,58,12.20
2015,04,08,11,59,12.30
2015,04,08,12,00,12.30
2015,04,08,12,01,12.30
2015,04,08,12,02,12.40
2015,04,08,12,03,12.50
2015,04,08,12,04,12.50
2015,04,08,12,05,12.60
2015,04,08,12,06,12.60
2015,04,08,12,07,12.70
2015,04,08,12,08,12.70
2015,04,08,12,09,12.80
2015,04,08,12,10,12.80
2015,04,08,12,11,12.80
2015,04,08,12,12,12.70
2015,04,08,12,13,12.60
2015,04,08,12,14,12.60
2015,04,08,12,15,12.60
2015,04,08,12,16,12.60
2015,04,08,12,17,12.60
2015,04,08,12,18,12.60
2015,04,08,12,19,12.60
2015,04,08,12,20,12.60
2015,04,08,12,21,12.60
2015,04,08,12,22,12.50
2015,04,08,12,23,12.50
2015,04,08,12,24,12.50
2015,04,08,12,25,12.50
2015,04,08,12,26,12.60
2015,04,08,12,27,12.70
2015,04,08,12,28,12.70
2015,04,08,12,29,12.70
2015,04,08,12,30,12.70
2015,04,08,12,31,12.70
2015,04,08,12,32,12.80
2015,04,08,12,33,12.90
2015,04,08,12,34,13.00
2015,04,08,12,35,13.10
2015,04,08,12,36,13.20
2015,04,08,12,37,13.20
2015,04,08,12,38,13.20
2015,04,08,12,39,13.10
2015,04,08,12,40,13.10
2015,04,08,12,41,13.20
2015,04,08,12,42,13.20
2015,04,08,12,43,13.30
2015,04,08,12,44,13.30
2015,04,08,12,45,13.30
2015,04,08,12,46,13.10
2015,04,08,12,47,13.00
2015,04,08,12,48,12.90
2015,04,08,12,49,12.80
2015,04,08,12,50,12.80
2015,04,08,12,51,12.80
2015,04,08,12,52,12.80
2015,04,08,12,53,12.80
2015,04,08,12,54,12.80
2015,04,08,12,55,12.80
2015,04,08,12,56,12.80
2015,04,08,12,57,12.80
2015,04,08,12,58,12.80
2015,04,08,12,59,12.70
2015,04,08,13,00,12.60
2015,04,08,13,01,12.60
2015,04,08,13,02,12.50
2015,04,08,13,03,12.40
2015,04,08,13,04,12.40
2015,04,08,13,05,12.50
2015,04,08,13,06,12.60
2015,04,08,13,07,12.70
2015,04,08,13,08,12.70
2015,04,08,13,09,12.70
2015,04,08,13,10,12.60
2015,04,08,13,11,12.60
2015,04,08,13,12,12.60
2015,04,08,13,13,12.50
2015,04,08,13,14,12.50
2015,04,08,13,15,12.50
2015,04,08,13,16,12.50
2015,04,08,13,17,12.50
2015,04,08,13,18,12.60
2015,04,08,13,19,12.60
2015,04,08,13,20,12.60
2015,04,08,13,21,12.50
2015,04,08,13,22,12.40
2015,04,08,13,23,12.40
2015,04,08,13,24,12.40
2015,04,08,13,25,12.30
2015,04,08,13,26,12.30
2015,04,08,13,27,12.20
2015,04,08,13,28,12.20
2015,04,08,13,29,12.20
2015,04,08,13,30,12.20
2015,04,08,13,31,12.20
2015,04,08,13,32,12.20
2015,04,08,13,33,12.20
2015,04,08,13,34,12.10
2015,04,08,13,35,12.10
2015,04,08,13,36,12.00
2015,04,08,13,37,12.00
2015,04,08,13,38,12.00
2015,04,08,13,39,12.00
2015,04,08,13,40,12.00
2015,04,08,13,41,12.10
2015,04,08,13,42,12.10
2015,04,08,13,43,12.20
2015,04,08,13,44,12.20
2015,04,08,13,45,12.20
2015,04,08,13,46,12.30
2015,04,08,13,47,12.40
2015,04,08,13,48,12.40
2015,04,08,13,49,12.50
2015,04,08,13,50,12.60
2015,04,08,13,51,12.70
2015,04,08,13,52,12.70
2015,04,08,13,53,12.70
2015,04,08,13,54,12.70
2015,04,08,13,55,12.70
2015,04,08,13,56,12.70
2015,04,08,13,57,12.70
2015,04,08,13,58,12.60
2015,04,08,13,59,12.50
2015,04,08,14,00,12.40
2015,04,08,14,01,12.40
2015,04,08,14,02,12.30
2015,04,08,14,03,12.30
2015,04,08,14,04,12.30
2015,04,08,14,05,12.30
2015,04,08,14,06,12.30
2015,04,08,14,07,12.40
2015,04,08,14,08,12.40
2015,04,08,14,09,12.50
2015,04,08,14,10,12.50
2015,04,08,14,11,12.40
2015,04,08,14,12,12.40
2015,04,08,14,13,12.30
2015,04,08,14,14,12.30
2015,04,08,14,15,12.30
2015,04,08,14,16,12.30
2015,04,08,14,17,12.30
2015,04,08,14,18,12.30
2015,04,08,14,19,12.30
2015,04,08,14,20,12.40
2015,04,08,14,21,12.40
2015,04,08,14,22,12.40
2015,04,08,14,23,12.40
2015,04,08,14,24,12.50
2015,04,08,14,25,12.60
2015,04,08,14,26,12.60
2015,04,08,14,27,12.70
2015,04,08,14,28,12.70
2015,04,08,14,29,12.70
2015,04,08,14,30,12.80
2015,04,08,14,31,12.80
2015,04,08,14,32,12.80
2015,04,08,14,33,12.80
2015,04,08,14,34,12.70
2015,04,08,14,35,12.70
2015,04,08,14,36,12.70
2015,04,08,14,37,12.70
2015,04,08,14,38,12.80
2015,04,08,14,39,12.80
2015,04,08,14,40,12.90
2015,04,08,14,41,12.90
2015,04,08,14,42,12.80
2015,04,08,14,43,12.80
2015,04,08,14,44,12.80
2015,04,08,14,45,12.80
2015,04,08,14,46,12.90
2015,04,08,14,47,12.90
2015,04,08,14,48,12.90
2015,04,08,14,49,13.00
2015,04,08,14,50,13.00
2015,04,08,14,51,13.10
2015,04,08,14,52,13.10
2015,04,08,14,53,13.10
2015,04,08,14,54,13.10
2015,04,08,14,55,13.10
2015,04,08,14,56,13.10
2015,04,08,14,57,13.10
2015,04,08,14,58,13.20
2015,04,08,14,59,13.20
2015,04,08,15,00,13.30
2015,04,08,15,01,13.30
2015,04,08,15,02,13.30
2015,04,08,15,03,13.30
2015,04,08,15,04,13.30
2015,04,08,15,05,13.30
2015,04,08,15,06,13.30
2015,04,08,15,07,13.30
2015,04,08,15,08,13.30
2015,04,08,15,09,13.30
2015,04,08,15,10,13.30
2015,04,08,15,11,13.30
2015,04,08,15,12,13.30
2015,04,08,15,13,13.30
2015,04,08,15,14,13.30
2015,04,08,15,15,13.30
2015,04,08,15,16,13.30
2015,04,08,15,17,13.30
2015,04,08,15,18,13.30
2015,04,08,15,19,13.30
2015,04,08,15,20,13.30
2015,04,08,15,21,13.30
2015,04,08,15,22,13.30
2015,04,08,15,23,13.30
2015,04,08,15,24,13.30
2015,04,08,15,25,13.30
2015,04,08,15,26,13.30
2015,04,08,15,27,13.20
2015,04,08,15,28,13.20
2015,04,08,15,29,13.20
2015,04,08,15,30,13.20
2015,04,08,15,31,13.30
2015,04,08,15,32,13.30
2015,04,08,15,33,13.30
2015,04,08,15,34,13.30
2015,04,08,15,35,13.30
2015,04,08,15,36,13.30
2015,04,08,15,37,13.40
2015,04,08,15,38,13.40
2015,04,08,15,39,13.40
2015,04,08,15,40,13.40
2015,04,08,15,41,13.40
2015,04,08,15,42,13.40
2015,04,08,15,43,13.40
2015,04,08,15,44,13.50
2015,04,08,15,45,13.50
2015,04,08,15,46,13.50
2015,04,08,15,47,13.50
2015,04,08,15,48,13.60
2015,04,08,15,49,13.60
2015,04,08,15,50,13.60
2015,04,08,15,51,13.60
2015,04,08,15,52,13.60
2015,04,08,15,53,13.60
2015,04,08,15,54,13.60
2015,04,08,15,55,13.60
2015,04,08,15,56,13.70
2015,04,08,15,57,13.70
2015,04,08,15,58,13.70
2015,04,08,15,59,13.80
2015,04,08,16,00,13.80
2015,04,08,16,01,13.80
2015,04,08,16,02,13.80
2015,04,08,16,03,13.80
2015,04,08,16,04,13.80
2015,04,08,16,05,13.80
2015,04,08,16,06,13.70
2015,04,08,16,07,13.80
2015,04,08,16,08,13.80
2015,04,08,16,09,13.80
2015,04,08,16,10,13.90
2015,04,08,16,11,13.90
2015,04,08,16,12,13.90
2015,04,08,16,13,13.90
2015,04,08,16,14,13.90
2015,04,08,16,15,13.90
2015,04,08,16,16,13.80
2015,04,08,16,17,13.80
2015,04,08,16,18,13.80
2015,04,08,16,19,13.80
2015,04,08,16,20,13.80
2015,04,08,16,21,13.80
2015,04,08,16,22,13.80
2015,04,08,16,23,13.70
2015,04,08,16,24,13.70
2015,04,08,16,25,13.70
2015,04,08,16,26,13.50
2015,04,08,16,27,13.50
2015,04,08,16,28,13.40
2015,04,08,16,29,13.40
2015,04,08,16,30,13.40
2015,04,08,16,31,13.40
2015,04,08,16,32,13.40
2015,04,08,16,33,13.40
2015,04,08,16,34,13.40
2015,04,08,16,35,13.40
2015,04,08,16,36,13.30
2015,04,08,16,37,13.30
2015,04,08,16,38,13.30
2015,04,08,16,39,13.30
2015,04,08,16,40,13.20
2015,04,08,16,41,13.20
2015,04,08,16,42,13.20
2015,04,08,16,43,13.30
2015,04,08,16,44,13.30
2015,04,08,16,45,13.30
2015,04,08,16,46,13.40
2015,04,08,16,47,13.40
2015,04,08,16,48,13.40
2015,04,08,16,49,13.50
2015,04,08,16,50,13.50
2015,04,08,16,51,13.50
2015,04,08,16,52,13.60
2015,04,08,16,53,13.50
2015,04,08,16,54,13.60
2015,04,08,16,55,13.60
2015,04,08,16,56,13.60
2015,04,08,16,57,13.60
2015,04,08,16,58,13.60
2015,04,08,16,59,13.60
2015,04,08,17,00,13.60
2015,04,08,17,01,13.60
2015,04,08,17,02,13.70
2015,04,08,17,03,13.70
2015,04,08,17,04,13.80
2015,04,08,17,05,13.80
2015,04,08,17,06,13.80
2015,04,08,17,07,13.90
2015,04,08,17,08,13.90
2015,04,08,17,09,14.00
2015,04,08,17,10,14.10
2015,04,08,17,11,14.10
2015,04,08,17,12,14.20
2015,04,08,17,13,14.20
2015,04,08,17,14,14.20
2015,04,08,17,15,14.20
2015,04,08,17,16,14.30
2015,04,08,17,17,14.30
2015,04,08,17,18,14.30
2015,04,08,17,19,14.30
2015,04,08,17,20,14.40
2015,04,08,17,21,14.40
2015,04,08,17,22,14.40
2015,04,08,17,23,14.50
2015,04,08,17,24,14.50
2015,04,08,17,25,14.50
2015,04,08,17,26,14.50
2015,04,08,17,27,14.60
2015,04,08,17,28,14.70
2015,04,08,17,29,14.70
2015,04,08,17,30,14.80
2015,04,08,17,31,14.80
2015,04,08,17,32,14.80
2015,04,08,17,33,14.80
2015,04,08,17,34,14.80
2015,04,08,17,35,14.80
2015,04,08,17,36,14.80
2015,04,08,17,37,14.90
2015,04,08,17,38,14.90
2015,04,08,17,39,15.00
2015,04,08,17,40,15.00
2015,04,08,17,41,15.00
2015,04,08,17,42,15.10
2015,04,08,17,43,15.20
2015,04,08,17,44,15.30
2015,04,08,17,45,15.30
2015,04,08,17,46,15.40